EZY66 EGKK-EGAC

Flight info

Callsign EZY66
Flight time 1h 14m
Altitude 38000
Route LAM L10 BPK UN601 LESTA UP6 RODOL UM65 TENSO L603 BELOX DCT REMSI DCT NINEB M148 MAGEE
Aircraft A320/M-SDE2E3FGHIJ1RWXYZ/LB1

Departure

Time 2026-05-05 14:04
Airport London Gatwick Airport (EGKK)

Arrival

Time 2026-05-05 15:19
Airport George Best Belfast City Airport (EGAC)
Time Latitude Longitude Altitude Speed Heading
2026-05-05 13:37 51.15588 -0.17617 205 ft 0 kts 346°
2026-05-05 13:50 51.15572 -0.17610 214 ft 2 kts 344°
2026-05-05 13:50 51.15556 -0.17602 215 ft 2 kts 339°
2026-05-05 13:50 51.15541 -0.17592 207 ft 2 kts 327°
2026-05-05 13:51 51.15529 -0.17573 217 ft 2 kts 278°
2026-05-05 13:51 51.15530 -0.17553 211 ft 1 kts 255°
2026-05-05 13:54 51.15522 -0.17604 215 ft 13 kts 256°
2026-05-05 13:54 51.15504 -0.17752 204 ft 14 kts 263°
2026-05-05 13:55 51.15484 -0.17910 204 ft 15 kts 258°
2026-05-05 13:55 51.15461 -0.18083 210 ft 16 kts 258°
2026-05-05 13:55 51.15443 -0.18219 210 ft 8 kts 258°
2026-05-05 13:55 51.15416 -0.18275 207 ft 5 kts 194°
2026-05-05 13:56 51.15358 -0.18267 204 ft 14 kts 169°
2026-05-05 13:56 51.15247 -0.18226 207 ft 17 kts 167°
2026-05-05 13:56 51.15189 -0.18271 207 ft 12 kts 257°
2026-05-05 13:56 51.15168 -0.18443 211 ft 11 kts 260°
2026-05-05 13:57 51.15155 -0.18553 212 ft 9 kts 258°
2026-05-05 13:57 51.15139 -0.18674 207 ft 13 kts 257°
2026-05-05 13:57 51.15122 -0.18790 207 ft 19 kts 257°
2026-05-05 13:57 51.15091 -0.19024 204 ft 22 kts 257°
2026-05-05 13:58 51.15046 -0.19341 205 ft 22 kts 257°
2026-05-05 13:58 51.15021 -0.19509 207 ft 23 kts 257°
2026-05-05 13:58 51.14972 -0.19857 211 ft 25 kts 258°
2026-05-05 13:58 51.14938 -0.20123 213 ft 23 kts 257°
2026-05-05 13:59 51.14878 -0.20548 206 ft 24 kts 258°
2026-05-05 13:59 51.14836 -0.20869 208 ft 21 kts 258°
2026-05-05 14:00 51.14783 -0.21207 211 ft 11 kts 254°
2026-05-05 14:00 51.14762 -0.21319 208 ft 10 kts 254°
2026-05-05 14:00 51.14730 -0.21403 207 ft 8 kts 195°
2026-05-05 14:00 51.14681 -0.21385 210 ft 7 kts 152°
2026-05-05 14:01 51.14651 -0.21341 204 ft 6 kts 140°
2026-05-05 14:01 51.14619 -0.21323 208 ft 0 kts 166°
2026-05-05 14:01 51.14618 -0.21323 208 ft 0 kts 166°
2026-05-05 14:02 51.14597 -0.21314 206 ft 13 kts 163°
2026-05-05 14:02 51.14515 -0.21167 211 ft 20 kts 79°
2026-05-05 14:02 51.14528 -0.21064 213 ft 0 kts 77°
2026-05-05 14:03 51.14533 -0.21028 205 ft 20 kts 77°
2026-05-05 14:04 51.14624 -0.20372 210 ft 97 kts 77°
2026-05-05 14:04 51.14811 -0.19022 208 ft 153 kts 77°
2026-05-05 14:04 51.15071 -0.17180 433 ft 180 kts 77°
2026-05-05 14:04 51.15348 -0.15170 1011 ft 191 kts 78°
2026-05-05 14:05 51.15618 -0.13043 1721 ft 194 kts 78°
2026-05-05 14:05 51.15884 -0.10968 2464 ft 193 kts 78°
2026-05-05 14:05 51.16175 -0.08839 3032 ft 199 kts 76°
2026-05-05 14:05 51.16595 -0.06735 3668 ft 199 kts 63°
2026-05-05 14:06 51.17313 -0.04888 4318 ft 198 kts 52°
2026-05-05 14:06 51.18162 -0.03081 4742 ft 210 kts 51°
2026-05-05 14:06 51.19108 -0.01186 5033 ft 230 kts 50°
2026-05-05 14:06 51.20178 0.00927 5056 ft 260 kts 50°
2026-05-05 14:07 51.21351 0.03259 5071 ft 273 kts 51°
2026-05-05 14:07 51.22532 0.05638 5069 ft 273 kts 51°
2026-05-05 14:07 51.23703 0.08025 5070 ft 273 kts 51°
2026-05-05 14:07 51.24739 0.10567 5069 ft 274 kts 65°
2026-05-05 14:08 51.25325 0.13454 5070 ft 275 kts 79°
2026-05-05 14:08 51.25664 0.16454 5070 ft 275 kts 79°
2026-05-05 14:08 51.26015 0.19452 5070 ft 275 kts 79°
2026-05-05 14:08 51.26371 0.22447 5070 ft 274 kts 79°
2026-05-05 14:09 51.26729 0.25444 5069 ft 275 kts 79°
2026-05-05 14:09 51.27081 0.28397 5070 ft 275 kts 79°
2026-05-05 14:09 51.27492 0.31372 5071 ft 274 kts 69°
2026-05-05 14:09 51.28480 0.33931 5071 ft 273 kts 44°
2026-05-05 14:10 51.30043 0.35594 5069 ft 271 kts 19°
2026-05-05 14:10 51.31880 0.36071 5069 ft 269 kts 354°
2026-05-05 14:10 51.33676 0.35335 5069 ft 268 kts 336°
2026-05-05 14:10 51.35399 0.34210 5069 ft 268 kts 336°
2026-05-05 14:11 51.37125 0.33086 5069 ft 268 kts 336°
2026-05-05 14:11 51.38854 0.31959 5070 ft 268 kts 337°
2026-05-05 14:11 51.40576 0.30838 5069 ft 267 kts 337°
2026-05-05 14:11 51.42277 0.29732 5116 ft 267 kts 337°
2026-05-05 14:12 51.43996 0.28614 5661 ft 269 kts 337°
2026-05-05 14:12 51.45739 0.27486 5991 ft 271 kts 337°
2026-05-05 14:12 51.47492 0.26354 6063 ft 271 kts 337°
2026-05-05 14:12 51.49239 0.25221 6070 ft 271 kts 337°
2026-05-05 14:13 51.50989 0.24082 6069 ft 271 kts 337°
2026-05-05 14:13 51.52735 0.22939 6069 ft 271 kts 336°
2026-05-05 14:13 51.54482 0.21794 6069 ft 271 kts 337°
2026-05-05 14:13 51.56231 0.20652 6071 ft 271 kts 337°
2026-05-05 14:14 51.57981 0.19510 6071 ft 271 kts 337°
2026-05-05 14:14 51.59732 0.18366 6070 ft 271 kts 337°
2026-05-05 14:14 51.61478 0.17223 6068 ft 271 kts 337°
2026-05-05 14:14 51.63214 0.16030 6072 ft 271 kts 330°
2026-05-05 14:15 51.64737 0.14272 6081 ft 269 kts 314°
2026-05-05 14:15 51.65886 0.11955 6510 ft 269 kts 301°
2026-05-05 14:15 51.66900 0.09395 7323 ft 273 kts 302°
2026-05-05 14:15 51.67940 0.06812 8140 ft 276 kts 302°
2026-05-05 14:16 51.68998 0.04202 8934 ft 280 kts 302°
2026-05-05 14:16 51.70068 0.01558 9712 ft 283 kts 302°
2026-05-05 14:16 51.71150 -0.01124 10417 ft 290 kts 302°
2026-05-05 14:16 51.72278 -0.03925 10825 ft 306 kts 302°
2026-05-05 14:17 51.73466 -0.06887 11193 ft 323 kts 302°
2026-05-05 14:17 51.74854 -0.09796 11751 ft 332 kts 313°
2026-05-05 14:17 51.76623 -0.12214 12449 ft 336 kts 326°
2026-05-05 14:17 51.78635 -0.14169 13133 ft 340 kts 329°
2026-05-05 14:18 51.80686 -0.16114 13788 ft 343 kts 329°
2026-05-05 14:18 51.82753 -0.18078 14448 ft 346 kts 329°
2026-05-05 14:18 51.84838 -0.20061 15076 ft 350 kts 329°
2026-05-05 14:18 51.86919 -0.22040 15687 ft 353 kts 329°
2026-05-05 14:19 51.89048 -0.24069 16281 ft 356 kts 329°
2026-05-05 14:19 51.91192 -0.26115 16861 ft 360 kts 329°
2026-05-05 14:19 51.93356 -0.28184 17447 ft 363 kts 329°
2026-05-05 14:19 51.95539 -0.30278 18001 ft 366 kts 328°
2026-05-05 14:20 51.97738 -0.32391 18552 ft 369 kts 328°
2026-05-05 14:20 51.99949 -0.34518 19093 ft 372 kts 328°
2026-05-05 14:20 52.02183 -0.36671 19629 ft 375 kts 328°
2026-05-05 14:20 52.04433 -0.38840 20152 ft 378 kts 328°
2026-05-05 14:21 52.06705 -0.41028 20666 ft 381 kts 328°
2026-05-05 14:21 52.08993 -0.43234 21159 ft 384 kts 328°
2026-05-05 14:21 52.11298 -0.45461 21664 ft 387 kts 328°
2026-05-05 14:21 52.13584 -0.47671 22152 ft 389 kts 328°
2026-05-05 14:22 52.15920 -0.49929 22622 ft 392 kts 328°
2026-05-05 14:22 52.18278 -0.52210 23090 ft 395 kts 328°
2026-05-05 14:22 52.20645 -0.54505 23532 ft 398 kts 328°
2026-05-05 14:22 52.23032 -0.56825 23971 ft 400 kts 328°
2026-05-05 14:23 52.25432 -0.59164 24388 ft 403 kts 328°
2026-05-05 14:23 52.27847 -0.61524 24791 ft 406 kts 328°
2026-05-05 14:23 52.30275 -0.63897 25184 ft 408 kts 328°
2026-05-05 14:23 52.32722 -0.66288 25565 ft 411 kts 328°
2026-05-05 14:24 52.35180 -0.68693 25933 ft 413 kts 328°
2026-05-05 14:24 52.37650 -0.71116 26289 ft 415 kts 328°
2026-05-05 14:24 52.40132 -0.73555 26634 ft 417 kts 328°
2026-05-05 14:24 52.42630 -0.76010 26967 ft 420 kts 328°
2026-05-05 14:25 52.45107 -0.78439 27285 ft 422 kts 328°
2026-05-05 14:25 52.47627 -0.80915 27601 ft 424 kts 328°
2026-05-05 14:25 52.50162 -0.83413 27926 ft 426 kts 328°
2026-05-05 14:25 52.52711 -0.85932 28230 ft 428 kts 328°
2026-05-05 14:26 52.55264 -0.88466 28522 ft 430 kts 328°
2026-05-05 14:26 52.57828 -0.91015 28813 ft 432 kts 328°
2026-05-05 14:26 52.60409 -0.93579 29088 ft 434 kts 328°
2026-05-05 14:26 52.63001 -0.96154 29357 ft 436 kts 328°
2026-05-05 14:27 52.65599 -0.98736 29628 ft 438 kts 328°
2026-05-05 14:27 52.68213 -1.01339 29886 ft 439 kts 328°
2026-05-05 14:27 52.70830 -1.03948 30043 ft 440 kts 328°
2026-05-05 14:27 52.73425 -1.06631 30071 ft 440 kts 323°
2026-05-05 14:28 52.77991 -1.13307 30069 ft 439 kts 316°
2026-05-05 14:28 52.82423 -1.20261 30070 ft 439 kts 316°
2026-05-05 14:29 52.86820 -1.27171 30070 ft 439 kts 316°
2026-05-05 14:29 52.91244 -1.34146 30071 ft 439 kts 316°
2026-05-05 14:30 52.95664 -1.41133 30070 ft 439 kts 316°
2026-05-05 14:30 53.00075 -1.48153 30070 ft 439 kts 315°
2026-05-05 14:31 53.04485 -1.55183 30070 ft 440 kts 315°
2026-05-05 14:31 53.08864 -1.62173 30071 ft 440 kts 315°
2026-05-05 14:32 53.13282 -1.69244 30070 ft 440 kts 315°
2026-05-05 14:32 53.17698 -1.76327 30070 ft 441 kts 315°
2026-05-05 14:33 53.22103 -1.83429 30070 ft 441 kts 316°
2026-05-05 14:33 53.27101 -1.89318 30071 ft 441 kts 330°
2026-05-05 14:34 53.32418 -1.94321 30070 ft 441 kts 330°
2026-05-05 14:34 53.37757 -1.99393 30071 ft 441 kts 329°
2026-05-05 14:35 53.43084 -2.04481 30070 ft 440 kts 329°
2026-05-05 14:35 53.48410 -2.09572 30070 ft 440 kts 329°
2026-05-05 14:36 53.53727 -2.14664 30071 ft 440 kts 329°
2026-05-05 14:36 53.58571 -2.20754 30069 ft 439 kts 313°
2026-05-05 14:37 53.61981 -2.29209 30069 ft 438 kts 294°
2026-05-05 14:37 53.64203 -2.38766 30070 ft 438 kts 291°
2026-05-05 14:38 53.66396 -2.48355 30070 ft 439 kts 291°
2026-05-05 14:38 53.68584 -2.57972 30070 ft 438 kts 290°
2026-05-05 14:39 53.70740 -2.67506 30070 ft 438 kts 290°
2026-05-05 14:39 53.72906 -2.77101 30069 ft 437 kts 290°
2026-05-05 14:40 53.75060 -2.86704 30070 ft 437 kts 290°
2026-05-05 14:40 53.77204 -2.96314 30070 ft 437 kts 290°
2026-05-05 14:41 53.79339 -3.05927 30069 ft 437 kts 290°
2026-05-05 14:41 53.81474 -3.15552 30069 ft 437 kts 290°
2026-05-05 14:42 53.83598 -3.25193 30070 ft 437 kts 290°
2026-05-05 14:42 53.85699 -3.34773 30070 ft 437 kts 290°
2026-05-05 14:43 53.87796 -3.44422 30069 ft 437 kts 290°
2026-05-05 14:43 53.89892 -3.54094 30069 ft 437 kts 290°
2026-05-05 14:44 53.91992 -3.63756 30070 ft 437 kts 290°
2026-05-05 14:44 53.94077 -3.73433 30070 ft 437 kts 290°
2026-05-05 14:45 53.96252 -3.83067 30069 ft 437 kts 296°
2026-05-05 14:45 53.99235 -3.92060 30071 ft 437 kts 300°
2026-05-05 14:46 54.02268 -4.01020 30070 ft 437 kts 300°
2026-05-05 14:46 54.05266 -4.09932 30022 ft 435 kts 299°
2026-05-05 14:47 54.06821 -4.14259 29757 ft 423 kts 305°
2026-05-05 14:47 54.08503 -4.18292 29508 ft 412 kts 305°
2026-05-05 14:47 54.10138 -4.22218 29260 ft 401 kts 305°
2026-05-05 14:47 54.11727 -4.26049 29011 ft 391 kts 304°
2026-05-05 14:48 54.13274 -4.29795 28759 ft 384 kts 304°
2026-05-05 14:48 54.14808 -4.33527 28508 ft 383 kts 304°
2026-05-05 14:48 54.16334 -4.37238 28262 ft 381 kts 304°
2026-05-05 14:48 54.17856 -4.40929 28016 ft 380 kts 304°
2026-05-05 14:49 54.19375 -4.44613 27762 ft 379 kts 304°
2026-05-05 14:49 54.20887 -4.48289 27513 ft 378 kts 304°
2026-05-05 14:49 54.22392 -4.51956 27264 ft 376 kts 304°
2026-05-05 14:49 54.23895 -4.55621 27013 ft 376 kts 304°
2026-05-05 14:50 54.25387 -4.59260 26766 ft 371 kts 304°
2026-05-05 14:50 54.26852 -4.62850 26388 ft 366 kts 304°
2026-05-05 14:50 54.28301 -4.66410 25953 ft 363 kts 304°
2026-05-05 14:50 54.29733 -4.69934 25514 ft 359 kts 304°
2026-05-05 14:51 54.31153 -4.73438 25073 ft 356 kts 304°
2026-05-05 14:51 54.32539 -4.76870 24623 ft 353 kts 304°
2026-05-05 14:51 54.33930 -4.80315 24178 ft 350 kts 304°
2026-05-05 14:51 54.35311 -4.83735 23728 ft 348 kts 304°
2026-05-05 14:52 54.36684 -4.87136 23260 ft 346 kts 304°
2026-05-05 14:52 54.38047 -4.90511 22835 ft 343 kts 304°
2026-05-05 14:52 54.39398 -4.93866 22397 ft 341 kts 304°
2026-05-05 14:52 54.40741 -4.97207 21963 ft 339 kts 304°
2026-05-05 14:53 54.42073 -5.00530 21541 ft 337 kts 304°
2026-05-05 14:53 54.43394 -5.03825 21120 ft 334 kts 304°
2026-05-05 14:53 54.44709 -5.07106 20701 ft 332 kts 304°
2026-05-05 14:53 54.46025 -5.10361 20285 ft 330 kts 304°
2026-05-05 14:54 54.47335 -5.13596 19882 ft 328 kts 304°
2026-05-05 14:54 54.48637 -5.16808 19467 ft 327 kts 304°
2026-05-05 14:54 54.49932 -5.19996 19056 ft 325 kts 306°
2026-05-05 14:54 54.51431 -5.22883 18657 ft 323 kts 318°
2026-05-05 14:55 54.53184 -5.25299 18231 ft 322 kts 321°
2026-05-05 14:55 54.54944 -5.27671 17816 ft 321 kts 321°
2026-05-05 14:55 54.56699 -5.30049 17399 ft 320 kts 321°
2026-05-05 14:55 54.58445 -5.32424 16987 ft 319 kts 321°
2026-05-05 14:56 54.60181 -5.34792 16576 ft 318 kts 321°
2026-05-05 14:56 54.61890 -5.37126 16181 ft 317 kts 321°
2026-05-05 14:56 54.63617 -5.39484 15787 ft 316 kts 321°
2026-05-05 14:56 54.65337 -5.41837 15384 ft 315 kts 321°
2026-05-05 14:57 54.67048 -5.44182 15000 ft 314 kts 321°
2026-05-05 14:57 54.68754 -5.46519 14599 ft 313 kts 321°
2026-05-05 14:57 54.70458 -5.48858 14205 ft 312 kts 321°
2026-05-05 14:57 54.72153 -5.51188 13806 ft 311 kts 321°
2026-05-05 14:58 54.73836 -5.53510 13416 ft 309 kts 319°
2026-05-05 14:58 54.75159 -5.56052 13051 ft 306 kts 300°
2026-05-05 14:58 54.75868 -5.59476 12655 ft 303 kts 276°
2026-05-05 14:58 54.75750 -5.63088 12269 ft 301 kts 254°
2026-05-05 14:59 54.74856 -5.66319 11873 ft 299 kts 232°
2026-05-05 14:59 54.73355 -5.68791 11488 ft 298 kts 219°
2026-05-05 14:59 54.71730 -5.71007 11086 ft 297 kts 219°
2026-05-05 14:59 54.70130 -5.73178 10691 ft 296 kts 219°
2026-05-05 15:00 54.68516 -5.75365 10284 ft 294 kts 219°
2026-05-05 15:00 54.67428 -5.76840 10015 ft 294 kts 219°
2026-05-05 15:00 54.65320 -5.79690 9537 ft 290 kts 219°
2026-05-05 15:00 54.63739 -5.81831 9179 ft 286 kts 219°
2026-05-05 15:01 54.62169 -5.83956 8757 ft 286 kts 219°
2026-05-05 15:01 54.60609 -5.86069 8313 ft 285 kts 219°
2026-05-05 15:01 54.59066 -5.88156 7887 ft 278 kts 219°
2026-05-05 15:01 54.57563 -5.90184 7392 ft 269 kts 219°
2026-05-05 15:02 54.56124 -5.92127 6973 ft 258 kts 219°
2026-05-05 15:02 54.54742 -5.93992 6574 ft 248 kts 219°
2026-05-05 15:02 54.53380 -5.95832 6183 ft 248 kts 219°
2026-05-05 15:02 54.52042 -5.97638 5781 ft 247 kts 219°
2026-05-05 15:03 54.50691 -5.99457 5385 ft 247 kts 219°
2026-05-05 15:03 54.49337 -6.01275 4976 ft 246 kts 219°
2026-05-05 15:03 54.47987 -6.03087 4568 ft 246 kts 219°
2026-05-05 15:03 54.46642 -6.04891 4198 ft 243 kts 219°
2026-05-05 15:04 54.45371 -6.06593 4125 ft 221 kts 219°
2026-05-05 15:04 54.44194 -6.08169 4057 ft 210 kts 219°
2026-05-05 15:04 54.43044 -6.09710 3974 ft 209 kts 219°
2026-05-05 15:04 54.41909 -6.11236 3889 ft 201 kts 219°
2026-05-05 15:05 54.39836 -6.14047 3549 ft 187 kts 219°
2026-05-05 15:05 54.38820 -6.15436 3299 ft 186 kts 222°
2026-05-05 15:05 54.38110 -6.17232 3040 ft 184 kts 255°
2026-05-05 15:06 54.38118 -6.19380 2790 ft 182 kts 288°
2026-05-05 15:06 54.38820 -6.21160 2538 ft 184 kts 321°
2026-05-05 15:06 54.39991 -6.21981 2285 ft 186 kts 354°
2026-05-05 15:06 54.41230 -6.21537 2039 ft 188 kts 29°
2026-05-05 15:07 54.42053 -6.19861 1949 ft 190 kts 69°
2026-05-05 15:07 54.42550 -6.17756 1941 ft 190 kts 65°
2026-05-05 15:07 54.43115 -6.15707 1937 ft 190 kts 64°
2026-05-05 15:07 54.43685 -6.13652 1939 ft 190 kts 64°
2026-05-05 15:08 54.44255 -6.11596 1936 ft 191 kts 64°
2026-05-05 15:08 54.44824 -6.09543 1935 ft 190 kts 64°
2026-05-05 15:08 54.45441 -6.07542 1938 ft 189 kts 53°
2026-05-05 15:08 54.46335 -6.05898 1935 ft 189 kts 39°
2026-05-05 15:09 54.47367 -6.04504 1935 ft 189 kts 35°
2026-05-05 15:09 54.48435 -6.03194 1934 ft 189 kts 33°
2026-05-05 15:09 54.49512 -6.01906 1935 ft 188 kts 33°
2026-05-05 15:09 54.50225 -6.01057 1934 ft 188 kts 33°
2026-05-05 15:10 54.51665 -5.99346 1936 ft 188 kts 33°
2026-05-05 15:10 54.52728 -5.98082 1899 ft 188 kts 33°
2026-05-05 15:10 54.53795 -5.96812 1752 ft 180 kts 33°
2026-05-05 15:10 54.54782 -5.95636 1550 ft 165 kts 33°
2026-05-05 15:11 54.55691 -5.94554 1349 ft 153 kts 33°
2026-05-05 15:11 54.56532 -5.93551 1176 ft 144 kts 33°
2026-05-05 15:11 54.57353 -5.92574 968 ft 143 kts 33°
2026-05-05 15:11 54.58171 -5.91597 781 ft 142 kts 33°
2026-05-05 15:12 54.58982 -5.90619 591 ft 142 kts 35°
2026-05-05 15:12 54.59510 -5.89957 472 ft 142 kts 31°
2026-05-05 15:12 54.60337 -5.89017 330 ft 142 kts 34°
2026-05-05 15:12 54.61142 -5.88043 95 ft 140 kts 34°
2026-05-05 15:13 54.62071 -5.86968 22 ft 92 kts 37°
2026-05-05 15:13 54.62433 -5.86520 25 ft 116 kts 37°
2026-05-05 15:13 54.63151 -5.85391 288 ft 151 kts 57°
2026-05-05 15:13 54.63314 -5.83698 886 ft 143 kts 104°
2026-05-05 15:14 54.62750 -5.82264 1278 ft 153 kts 142°
2026-05-05 15:14 54.61774 -5.81404 1592 ft 164 kts 164°
2026-05-05 15:14 54.60705 -5.80533 1854 ft 178 kts 151°
2026-05-05 15:14 54.59501 -5.79978 1921 ft 182 kts 186°
2026-05-05 15:15 54.58319 -5.80686 1950 ft 180 kts 208°
2026-05-05 15:15 54.57216 -5.81704 1941 ft 179 kts 210°
2026-05-05 15:15 54.56128 -5.82754 1938 ft 180 kts 211°
2026-05-05 15:15 54.55037 -5.83810 1928 ft 180 kts 211°
2026-05-05 15:16 54.53949 -5.84882 1929 ft 180 kts 214°
2026-05-05 15:16 54.53190 -5.86505 1910 ft 173 kts 254°
2026-05-05 15:16 54.53093 -5.88442 1957 ft 160 kts 272°
2026-05-05 15:16 54.53307 -5.90308 1950 ft 160 kts 294°
2026-05-05 15:17 54.53948 -5.91863 1941 ft 161 kts 315°
2026-05-05 15:17 54.54878 -5.92888 1939 ft 163 kts 337°
2026-05-05 15:17 54.55921 -5.93226 1931 ft 143 kts 359°
2026-05-05 15:17 54.56901 -5.92883 1780 ft 146 kts 23°
2026-05-05 15:18 54.57792 -5.91997 1320 ft 152 kts 33°
2026-05-05 15:18 54.58691 -5.90925 635 ft 167 kts 34°
2026-05-05 15:18 54.59641 -5.89826 337 ft 156 kts 33°
2026-05-05 15:18 54.60490 -5.88824 159 ft 143 kts 33°
2026-05-05 15:19 54.61304 -5.87851 36 ft 142 kts 34°
2026-05-05 15:19 54.62059 -5.86954 22 ft 114 kts 33°
2026-05-05 15:19 54.62435 -5.86504 23 ft 21 kts 32°
2026-05-05 15:19 54.62441 -5.86430 22 ft 5 kts 189°
2026-05-05 15:20 54.62403 -5.86529 23 ft 18 kts 238°
2026-05-05 15:20 54.62287 -5.86690 23 ft 24 kts 216°
2026-05-05 15:20 54.62145 -5.86850 21 ft 26 kts 214°
2026-05-05 15:20 54.61997 -5.87030 22 ft 27 kts 216°
2026-05-05 15:21 54.61855 -5.87185 22 ft 18 kts 165°
2026-05-05 15:21 54.61780 -5.87048 22 ft 16 kts 126°
2026-05-05 15:21 54.61693 -5.87031 22 ft 14 kts 211°
2026-05-05 15:21 54.61612 -5.87127 22 ft 15 kts 215°
2026-05-05 15:22 54.61524 -5.87165 22 ft 11 kts 153°
2026-05-05 15:22 54.61511 -5.87152 24 ft 6 kts 154°
2026-05-05 15:22 54.61508 -5.87150 23 ft 0 kts 155°